TimeCST,TemperatureF,Dew PointF,Humidity,Sea Level PressureIn,VisibilityMPH,Wind Direction,Wind SpeedMPH,Gust SpeedMPH,PrecipitationIn,Events,Conditions,WindDirDegrees,DateUTC
12:53 AM,12.9,3.9,67,30.17,10.0,Variable,3.5,-,N/A,,Overcast,0,2013-01-02 06:53:00
1:53 AM,14.0,5.0,67,30.18,10.0,Calm,Calm,-,N/A,,Overcast,0,2013-01-02 07:53:00
2:53 AM,16.0,9.0,74,30.19,10.0,WSW,3.5,-,N/A,,Overcast,240,2013-01-02 08:53:00
3:28 AM,15.8,10.4,79,30.12,9.0,WSW,4.6,-,0.00,Snow,Light Snow,240,2013-01-02 09:28:00
3:53 AM,17.1,10.9,77,30.17,9.0,SSW,4.6,-,0.00,Snow,Light Snow,200,2013-01-02 09:53:00
4:53 AM,18.0,12.0,78,30.15,9.0,SSW,4.6,-,0.00,Snow,Light Snow,200,2013-01-02 10:53:00
5:29 AM,17.6,10.4,73,30.11,9.0,South,6.9,-,0.00,Snow,Light Snow,180,2013-01-02 11:29:00
5:53 AM,17.1,10.9,77,30.16,9.0,South,5.8,-,0.00,Snow,Light Snow,190,2013-01-02 11:53:00
6:53 AM,17.1,10.9,77,30.17,9.0,SSW,3.5,-,0.00,Snow,Light Snow,200,2013-01-02 12:53:00
7:53 AM,14.0,7.0,74,30.17,10.0,South,6.9,-,0.00,,Mostly Cloudy,190,2013-01-02 13:53:00
8:00 AM,14.0,6.8,73,30.11,10.0,South,6.9,-,N/A,,Scattered Clouds,190,2013-01-02 14:00:00
8:53 AM,15.8,6.8,68,30.11,10.0,South,8.1,-,N/A,,Partly Cloudy,180,2013-01-02 14:53:00
9:53 AM,16.0,5.0,62,30.17,10.0,South,9.2,-,N/A,,Clear,180,2013-01-02 15:53:00
10:53 AM,18.0,3.9,54,30.14,10.0,South,9.2,-,N/A,,Clear,170,2013-01-02 16:53:00
11:53 AM,19.9,7.0,57,30.11,10.0,South,10.4,-,N/A,,Clear,180,2013-01-02 17:53:00
12:53 PM,21.0,6.1,53,30.09,10.0,South,10.4,-,N/A,,Clear,180,2013-01-02 18:53:00
1:53 PM,21.9,9.0,58,30.08,10.0,SSW,6.9,-,N/A,,Partly Cloudy,200,2013-01-02 19:53:00
2:53 PM,21.9,10.9,63,30.08,10.0,South,10.4,-,N/A,,Mostly Cloudy,190,2013-01-02 20:53:00
3:53 PM,23.0,12.0,63,30.07,10.0,South,9.2,-,N/A,,Scattered Clouds,190,2013-01-02 21:53:00
4:53 PM,21.0,12.0,68,30.08,10.0,SSW,6.9,-,N/A,,Clear,200,2013-01-02 22:53:00
5:53 PM,21.0,12.9,71,30.10,10.0,SSW,5.8,-,N/A,,Overcast,200,2013-01-02 23:53:00
6:53 PM,21.0,12.9,71,30.10,10.0,SSW,6.9,-,N/A,,Overcast,200,2013-01-03 00:53:00
7:53 PM,21.9,14.0,72,30.10,10.0,SW,3.5,-,N/A,,Overcast,230,2013-01-03 01:53:00
8:53 PM,21.9,15.1,75,30.09,10.0,WSW,6.9,-,0.00,Snow,Light Snow,240,2013-01-03 02:53:00
9:53 PM,23.0,16.0,74,30.08,9.0,SW,5.8,-,0.00,Snow,Light Snow,230,2013-01-03 03:53:00
10:53 PM,21.9,15.1,75,30.09,8.0,WSW,5.8,-,0.00,Snow,Light Snow,250,2013-01-03 04:53:00
11:09 PM,21.2,15.8,80,30.04,8.0,West,4.6,-,0.00,Snow,Light Snow,270,2013-01-03 05:09:00
11:53 PM,21.9,16.0,78,30.08,7.0,West,4.6,-,0.00,Snow,Light Snow,270,2013-01-03 05:53:00